ICEYE-X1

导读 | 星芒AI

ICEYE-X1 是 ICEYE 公司发射的首颗商业合成孔径雷达(SAR)卫星,于2018年成功入轨。该卫星具备高分辨率成像能力,可在任何天气和光照条件下提供地球表面的实时影像。其小巧的立方星设计使其成本较低,同时具备强大的数据获取和传输能力。ICEYE-X1 为灾害监测、环境评估和安全应用提供了重要的遥感支持,标志着小型 SAR 卫星技术的重要突破。

基本信息
目录编号:
43114
目录名称:
ICEYE-X1
国际标识:
2018-004D
轨道中心:
EARTH
卫星名称:
ICEYE-X1
卫星全名:
--
卫星状态:
已陨落 最后检测时间 2024-02-10
发射日期:
2018-01-12 UTC
国别 :
(FI)
星等 :
--
轨道信息
数据来源 国际轨道数据
星历时间: 2024-02-07T22:36:45+0800
轨道信息已过期677天
半长轴: 6529.644km
偏心率: 0.0010196
轨道倾角: 97.271°
近地点辐角 278.970°
升交点赤经 127.499°
平近点角 81.045°
近地点: 144.851km
远地点: 158.167km
周期: 87.517分钟
每日圈数: 16.453887
详细信息
使用方式:
暂无